sat.trackr.live / text

‹ back to catalog

YAOGAN-34 01

NORAD 48340 · 2021-037A

PAYLOAD ACTIVE UNKNOWN

§ Identity

Operator
Country
PRC
Launch date
2021-04-30
Launch site
JSC
Launch vehicle
Mass (kg)
RCS (m²)

External: N2YO · Heavens-Above · Gunter

§ Orbital elements

Epoch: 2026-05-25T05:35:12.344064Z

Period
107.02 min
Inclination
63.4020°
Eccentricity
0.0060535
Mean motion
13.45566612 rev/d
Perigee alt
1,043.4 km
Apogee alt
1,133.8 km
Semi-major
7,466.8 km
B*
1.8335e-7
RAAN
205.3362°
Arg perigee
355.1295°
Mean anomaly
4.9134°
Rev number
24,891

§ Raw data

YAOGAN-34 011 48340U 21037A   26145.23278176 -.00000090  00000+0  18335-6 0  99912 48340  63.4020 205.3362 0060535 355.1295   4.9134 13.45566612248910

JSON: /api/v1/satellites/48340 · /tle

For live sub-satellite position, see the globe view (requires WebGL).

§ Visibility from observer

Set your observer location to see the next 7 days of passes ≥ 10°. The values pass through the URL so the page stays shareable.

No JS? Fill the form by hand. The geolocation button needs JavaScript.